STARLINK-32447 (61261 NORAD) Tracking and Keplerian Element Data

This shows tracking and keplerian element data for the satellite.

Feedback or suggestion? Click here.




ElementValue
Catalog61261
NameSTARLINK-32447
Epoch Orbit402
Epoch Day286.91668981
Epoch Year2024
RAAN65.1935
Inclination53.1583
Eccentricity7.6E-05
Argument of Perigee117.5517
Mean Anonmoly265.3598
Mean Motion15.73721541
Decay Rate0.00025356
L11 61261U 24175U 24286.91668981 .00025356 00000+0 18047-3 0 9998
L22 61261 53.1583 65.1935 0000760 117.5517 265.3598 15.73721541 4022



Live tracking and technical data element details for STARLINK-32447 (NORAD 61261). STARLINK-32447 can be tracked NOW for your location showing map with azimuth and elevation plus other details from your city location.







IsCatalogInMostPopularTable: catalog: 61261, numindb: 22
Update: records affected: 1



GetName: 61261 STARLINK-32447

Hit Count: updated at: Wed, 04 Dec 2024 09:30:43 GMT